Tracking 30922 objects as of 2-Jul-2025
HD Live streaming from Space Station
objects crossing your sky now

COSMOS 917 DEB

Track COSMOS 917 DEB now!


NORAD ID: 26964
Int'l Code: 1977-047E
Perigee: 1,137.7 km
Apogee: 38,877.5 km
Inclination: 63.3 °
Period: 710.6 minutes
Semi major axis: 26378 km
RCS: 0.2518 m2 (medium)
Launch date: June 16, 1977
Source: Commonwealth of Independent States (former USSR) (CIS)
Launch site: PLESETSK MISSILE AND SPACE COMPLEX (PKMTR)

Note: This is SATELLITE DEBRIS
Your satellite tracking list
Your tracking list is empty




NASA's NSSDC Master Catalog

Two Line Element Set (TLE):
1 26964U 77047E   25181.81114858 -.00000734  00000-0  00000-0 0  9990
2 26964  63.2879 341.0111 7153496  34.6496 355.7395  2.02640441570251
Source of the keplerian elements: AFSPC